Casper, WY

6:05 AM MST on December 06, 2019 (GMT -0700)
Natrona County International

Weather History for KCPR - October, 2019

Change the Weather History Date:

Friday, October 4, 2019

  Actual Average Record
Temperature  
Mean Temperature 53 °F 49 °F  
Max Temperature 75 °F 64 °F 84 °F (1963)
Min Temperature 30 °F 34 °F 22 °F (1964)
Degree Days  
Heating Degree Days 12 16  
Month to date heating degree days 80 61  
Since 1 July heating degree days 251 346  
Cooling Degree Days 0 0  
Month to date cooling degree days 0 0  
Year to date cooling degree days 441 422  
Growing Degree Days 2 (Base 50)    
Moisture  
Dew Point 30 °F    
Average Humidity 53    
Maximum Humidity 92    
Minimum Humidity 14    
Precipitation  
Precipitation 0.08 in 0.04 in 0.86 in (1998)
Month to date precipitation 0.30 0.17  
Year to date precipitation 11.00 10.33  
Snow  
Snow 0.00 in 0.20 in - ()
Month to date snowfall 0.0 0.8  
Since 1 July snowfall 0.0 2.6  
Since 1 September snowfall 0.0 2.6  
Snow Depth 0.00 in    
Sea Level Pressure  
Sea Level Pressure 29.82 in    
Wind  
Wind Speed 15 mph (WSW)    
Max Wind Speed 51 mph    
Max Gust Speed 68 mph    
Visibility 10 miles    
Events Rain    
T = Trace of Precipitation, MM = Missing Value Source: NWS Daily Summary

Daily Weather History Graph

Daily Weather History Graph

Search for Another Location

Airport or City:

Astronomy

Oct. 04, 2019 Rise Set
Actual Time 7:06 AM MDT 6:42 PM MDT
Civil Twilight 6:38 AM MDT 7:10 PM MDT
Nautical Twilight 6:05 AM MDT 7:43 PM MDT
Astronomical Twilight 5:32 AM MDT 8:16 PM MDT
Moon 1:48 PM MDT (10/4) 11:05 PM MDT (10/4)
Length of Visible Light 12h 32m
Length of Day
11h 35m
Waxing Crescent, 40% of the Moon is Illuminated
Oct 4
Waxing Crescent
Oct 5
First Quarter
Oct 13
Full
Oct 21
Last Quarter
Oct 27
New

Hourly Weather History & Observations

Time (MDT) Temp. Windchill Dew Point Humidity Pressure Visibility Wind Dir Wind Speed Gust Speed Precip Events Conditions
12:53 AM 37.9 °F 31.5 °F 33.1 °F 83% 29.92 in 10.0 mi NNW 9.2 mph - N/A   Clear
1:53 AM 37.0 °F 31.6 °F 33.1 °F 86% 29.90 in 10.0 mi NNE 6.9 mph - N/A   Clear
2:53 AM 36.0 °F 31.1 °F 32.0 °F 86% 29.89 in 10.0 mi NNE 5.8 mph - N/A   Clear
3:53 AM 37.9 °F 34.4 °F 33.1 °F 83% 29.86 in 10.0 mi East 4.6 mph - N/A   Clear
4:53 AM 37.9 °F 33.5 °F 33.1 °F 83% 29.85 in 10.0 mi East 5.8 mph - N/A   Clear
5:53 AM 35.1 °F 32.2 °F 30.9 °F 85% 29.86 in 10.0 mi East 3.5 mph - N/A   Clear
6:53 AM 30.0 °F - 28.9 °F 96% 29.90 in 10.0 mi Calm Calm - N/A   Clear
7:53 AM 37.0 °F 32.4 °F 33.1 °F 86% 29.88 in 10.0 mi ENE 5.8 mph - N/A   Clear
8:53 AM 44.1 °F 40.8 °F 36.0 °F 73% 29.86 in 10.0 mi ENE 5.8 mph - N/A   Clear
9:53 AM 51.1 °F - 37.9 °F 61% 29.86 in 10.0 mi East 4.6 mph - N/A   Clear
10:53 AM 61.0 °F - 39.0 °F 44% 29.81 in 10.0 mi Variable 3.5 mph - N/A   Clear
11:53 AM 72.0 °F - 28.0 °F 20% 29.73 in 10.0 mi SSW 19.6 mph 33.4 mph N/A   Clear
12:53 PM 73.9 °F - 30.0 °F 20% 29.70 in 10.0 mi SSW 27.6 mph 44.9 mph 0.00 in Rain Light Rain
1:53 PM 72.0 °F - 27.0 °F 19% 29.69 in 10.0 mi WSW 28.8 mph 38.0 mph 0.00 in   Clear
2:53 PM 73.0 °F - 28.0 °F 19% 29.67 in 10.0 mi WSW 21.9 mph 35.7 mph N/A   Clear
3:53 PM 73.0 °F - 21.9 °F 15% 29.64 in 10.0 mi SW 24.2 mph 48.3 mph 0.00 in   Clear
4:53 PM 70.0 °F - 19.9 °F 15% 29.65 in 10.0 mi WSW 21.9 mph 41.4 mph N/A   Clear
5:53 PM 60.1 °F - 30.0 °F 32% 29.75 in 10.0 mi WNW 36.8 mph 54.1 mph 0.00 in Rain Light Rain
6:53 PM 57.0 °F - 28.9 °F 34% 29.86 in 10.0 mi West 27.6 mph 41.4 mph 0.00 in Rain Light Rain
7:53 PM 53.1 °F - 28.9 °F 40% 29.89 in 10.0 mi SSW 12.7 mph - 0.00 in   Overcast
8:53 PM 51.1 °F - 26.1 °F 38% 29.87 in 10.0 mi SW 16.1 mph - N/A   Mostly Cloudy
9:53 PM 48.9 °F - 18.0 °F 29% 29.85 in 10.0 mi SW 26.5 mph 39.1 mph 0.00 in Rain Light Rain
10:53 PM 39.0 °F 26.8 °F 32.0 °F 76% 29.90 in 5.0 mi West 32.2 mph 67.9 mph 0.00 in Rain Rain
10:58 PM 39.0 °F 28.0 °F 33.1 °F 79% 29.98 in 4.0 mi WNW 25.3 mph 52.9 mph 0.01 in Rain Rain
11:53 PM 39.0 °F 29.6 °F 35.1 °F 86% 29.90 in 10.0 mi WSW 18.4 mph - 0.08 in   Partly Cloudy